Location: Pasadena, ca
(34.1243°N, 118.1037°W)
Time: 04:33:43
(UTC-07:00)

ISS - Pass Details

Date: 13 October 2017
Orbit: 401 x 408 km, 51.6° (Epoch: 25 October)

Event Time Altitude Azimuth Distance (km) Brightness Sun altitude
Rises 18:48:41 0° 328° (NNW) 2,324 0.4 -6.7°
Reaches altitude 10° 18:51:26 10° 352° (N) 1,464 -1.0 -7.2°
Maximum altitude 18:53:26 15° 30° (NNE) 1,193 -1.8 -7.7°
Drops below altitude 10° 18:55:27 10° 68° (ENE) 1,463 -1.6 -8.1°
Enters shadow 18:55:28 10° 69° (ENE) 1,469 -1.6 -8.1°
